This demonstration page uses our WeatherBlox Daily Observations layout. Learn more.

38.89511, -77.03637

Hourly Observations for April 11, 2017

Temp ( °F °C ) Dew Point ( °F °C ) Humidity (%) Winds ( mph kmh ) Pressure ( in mb ) Visibility ( mi km ) Precip ( " mm )
12:52 am 00:52 Cloudy 64 17.8 51 10.6 63 63 S 10 17 30.12 1020 10 16.09344 0 0
1:52 am 01:52 Cloudy 63 17.2 51 10.6 65 65 S 9 15 30.12 1020 10 16.09344 0 0
2:52 am 02:52 Mostly Cloudy 63 17.2 51 10.6 65 65 S 10 17 30.12 1020 10 16.09344 0 0
3:52 am 03:52 Mostly Cloudy 62 16.7 51 10.6 67 67 S 9 15 30.09 1019 10 16.09344 0 0
4:52 am 04:52 Mostly Cloudy 62 16.7 49 9.4 62 62 SSW 10 17 30.12 1020 10 16.09344 0 0
5:52 am 05:52 Mostly Cloudy 61 16.1 48 8.9 63 63 SSW 9 15 30.12 1020 10 16.09344 0 0
6:52 am 06:52 Mostly Cloudy 60 15.6 50 10 70 70 S 9 15 30.15 1021 10 16.09344 0 0
7:52 am 07:52 Mostly Cloudy 61 16.1 51 10.6 70 70 S 6 9 30.18 1022 10 16.09344 0 0
8:52 am 08:52 Mostly Cloudy 64 17.8 52 11.1 65 65 S 7 11 30.18 1022 10 16.09344 0 0
9:52 am 09:52 Mostly Cloudy 70 21.1 52 11.1 53 53 S 8 13 30.18 1022 10 16.09344 0 0
10:52 am 10:52 Mostly Cloudy 70 21.1 54 12.2 57 57 S 10 17 30.18 1022 10 16.09344 0 0
11:52 am 11:52 Mostly Cloudy 74 23.3 54 12.2 50 50 S 12 19 30.15 1021 10 16.09344 0 0
12:52 pm 12:52 Mostly Cloudy 78 25.6 54 12.2 43 43 S 12 19 30.15 1021 10 16.09344 0 0
1:52 pm 13:52 Mostly Cloudy 80 26.7 54 12.2 41 41 SSE 12 19 30.12 1020 10 16.09344 0 0
2:52 pm 14:52 Mostly Cloudy 82 27.8 51 10.6 34 34 S 12 19 30.12 1020 10 16.09344 0 0
3:52 pm 15:52 Mostly Cloudy 84 28.9 48 8.9 29 29 S 10 17 30.09 1019 10 16.09344 0 0
4:52 pm 16:52 Mostly Cloudy 81 27.2 51 10.6 35 35 S 13 20 30.06 1018 10 16.09344 0 0
5:52 pm 17:52 Mostly Cloudy 80 26.7 54 12.2 41 41 S 12 19 30.06 1018 10 16.09344 0 0
6:52 pm 18:52 Partly Cloudy 78 25.6 52 11.1 40 40 S 9 15 30.06 1018 10 16.09344 0 0
7:52 pm 19:52 Partly Cloudy 75 23.9 53 11.7 46 46 SSE 7 11 30.06 1018 10 16.09344 0 0
8:52 pm 20:52 Partly Cloudy 73 22.8 53 11.7 50 50 S 8 13 30.06 1018 10 16.09344 0 0
9:52 pm 21:52 Mostly Clear 70 21.1 55 12.8 59 59 S 8 13 30.09 1019 10 16.09344 0 0
10:52 pm 22:52 Mostly Cloudy 69 20.6 55 12.8 61 61 S 9 15 30.09 1019 10 16.09344 0 0
11:52 pm 23:52 Partly Cloudy 69 20.6 55 12.8 61 61 S 12 19 30.09 1019 10 16.09344 0 0

Powered by AerisWeather